Regional Weather Roundup
Issued by NWS Nashville, TN

Home | Current Version | Previous Version | Text Only | Print | Product List | Glossary On
Versions: 1 2 3 4 5 6 7 8 9 10 11 12 13 14 15 16 17 18 19 20 21 22 23 24 25 26 27 28 29 30 31 32 33 34 35 36 37 38 39 40 41 42 43 44 45 46 47 48 49 50
000
ASUS44 KOHX 202115
RWROHX
MIDDLE TENNESSEE HOURLY WEATHER ROUNDUP
NATIONAL WEATHER SERVICE NASHVILLE TN
400 PM CDT SUN APR 20 2014

NOTE: "FAIR" INDICATES FEW OR NO CLOUDS BELOW 12,000 FEET WITH
NO SIGNIFICANT WEATHER AND/OR OBSTRUCTIONS TO VISIBILITY.

* THESE REPORTS ARE NOT UNDER NWS QUALITY CONTROL AND MAY NOT
  REPORT WEATHER SUCH AS PRECIPITATION AND FOG.


TNZ005>011-023>034-057-059-062>066-078-080-202200
...NORTHERN MIDDLE TENNESSEE...

CITY           SKY/WX    TMP DP  RH WIND       PRES   REMARKS
BAXTER*          N/A     82  46  28 MISG        N/A
BRENTWOOD*       N/A     84  45  24 SW2         N/A
CASTALIAN SPRG   N/A     81  43  26 W3          N/A
CLARKSVILLE    MOSUNNY   78  38  23 E5        30.13F
COLUMBIA       SUNNY     79  52  38 CALM      30.13F
CROSSVILLE     SUNNY     76  34  21 N6        30.16F
GALLATIN         N/A     78  43  28 E5        30.16F
DICKSON        MOSUNNY   79  37  22 VRB6      30.13F
FAIRFIELD GLAD   N/A     75  39  27 N2          N/A
GOODLETTSVILLE   N/A     79  50  36 CALM        N/A
JOELTON*         N/A     81  43  26 CALM        N/A
KINGSTON SPGS*   N/A     81  46  30 CALM        N/A
LAFAYETTE*       N/A     81  45  28 E3          N/A
LIVINGSTON     SUNNY     76  37  24 CALM      30.15
MONTEREY         N/A     77  39  25 CALM        N/A
MOUNT JULIET*    N/A     81  41  24 CALM        N/A
NASHVILLE      MOSUNNY   80  38  22 CALM      30.14F
OLD HICKORY*     N/A     79  50  36 SW1         N/A
PEGRAM*          N/A    N/A N/A N/A S2          N/A
PORTLAND         N/A     75  45  33 N5        30.14F
SMYRNA         SUNNY     80  42  25 CALM      30.14F
SPARTA         SUNNY     81  43  26 W3        30.14F
SPRINGFIELD*     N/A     77  54  44 MISG        N/A
WHITE BLUFF*     N/A     81  39  22 SW3         N/A
$$
TNZ056-058-060-061-075>077-079-093>097-202200
...SOUTHERN MIDDLE TENNESSEE...

CITY           SKY/WX    TMP DP  RH WIND       PRES   REMARKS
BELLEVUE*        N/A     81  46  30 CALM        N/A
CULLEOKA*        N/A     79  41  25 E1          N/A
EAGLEVILLE*      N/A    N/A N/A N/A S1          N/A
FAYETTEVILLE   MOSUNNY   75  42  30 CALM      30.15F
HOHENWALD*       N/A     81  39  22 SW3         N/A
LEWISBURG      MOSUNNY   80  46  30 CALM      30.14F
MANCHESTER*      N/A     77  45  31 CALM        N/A
MCMINNVILLE      N/A     77  43  29 N7        30.15F
MOUNT PLEASANT   N/A     77  48  36 CALM        N/A
MURFREESBORO   SUNNY     78  41  26 VRB5      30.14F
SHELBYVILLE    SUNNY     79  46  31 S3        30.16F
SPRING HILL*     N/A     79  46  31 CALM        N/A
TULLAHOMA      SUNNY     75  41  29 CALM      30.16S
WINCHESTER     SUNNY     77  45  31 VRB3      30.14F
$$


...KEY TO REMARKS...
VSB - VISIBILITY IN MILES
WCI - WIND CHILL INDEX
HX  - HEAT INDEX




USA.gov is the U.S. government's official web portal to all federal, state and local government web resources and services.